Regional Weather Roundup
Issued by NWS Mt. Holly, NJ

Home | Current Version | Previous Version | Text Only | Print | Product List | Glossary On
Versions: 1 2 3 4 5 6 7 8 9 10 11 12 13 14 15 16 17 18 19 20 21 22 23 24 25 26 27 28
000
ASUS41 KPHI 200412
RWRPHI

REGIONAL WEATHER ROUNDUP
NATIONAL WEATHER SERVICE MOUNT HOLLY NJ
1200 AM EDT FRI OCT 20 2017

NOTE:  "FAIR" INDICATES FEW OR NO CLOUDS BELOW 12,000 FEET WITH NO
SIGNIFICANT WEATHER AND/OR OBSTRUCTIONS TO VISIBILITY.

 * = STATION DOES NOT REPORT PRECIPITATION (E.G. RAIN, SNOW, ETC.)
        OR FOG.

NJZ015>026-200500-
SOUTHERN NEW JERSEY

CITY           SKY/WX    TMP DP  RH WIND       PRES   REMARKS
POMONA         FAIR      57  54  89 SW6       30.14S
WILDWOOD*      FAIR      54  52  93 CALM      30.16S
MILLVILLE      FAIR      49  48  97 CALM      30.15S
WRIGHTSTOWN    FAIR      53  49  84 SW3       30.10S
MOUNT HOLLY    FAIR      56  50  80 SW5       30.13S
TRENTON        FAIR      57  48  72 W5        30.12R

$$
NJZ001>014-200500-
NORTHERN NEW JERSEY

CITY           SKY/WX    TMP DP  RH WIND       PRES   REMARKS
SUSSEX         FAIR      48  45  89 CALM      30.09S
ANDOVER*         N/A     49  47  93 S3        30.10F
MORRISTOWN     FAIR      46  46 100 CALM      30.08F
NEWARK         FAIR      59  45  59 SW8       30.09S
TETERBORO      FAIR      59  46  62 SW8       30.07F
CALDWELL       FAIR      58  49  72 VRB3      30.09S
SOMERVILLE     FAIR      47  46  97 CALM      30.09S
ALLAIRE*       FAIR      55  49  80 SW7       30.12S
TOMS RIVER*      N/A     47  45  93 W6        30.13S

$$
PAZ043-044-047-054-055-060>062-066>071-200500-
EASTERN PENNSYLVANIA

CITY           SKY/WX    TMP DP  RH WIND       PRES   REMARKS
PHILADELPHIA   FAIR      59  50  72 SW9       30.14R
NORTH PHILA    FAIR      58  49  72 SW5       30.14S
BLUE BELL*     FAIR      46  46 100 CALM      30.14S
DOYLESTOWN     FAIR      55  48  77 S5        30.12S
QUAKERTOWN*    FAIR      46  46 100 CALM      30.13S
PERKASIE*      FAIR      50  50 100 CALM      30.13F
POTTSTOWN      FAIR      50  48  93 CALM      30.14F
LANCASTER      FAIR      54  49  83 W3        30.14S
COATESVILLE    FAIR      55  48  76 W6        30.16S
READING        FAIR      56  51  84 CALM      30.12S
ALLENTOWN      FAIR      52  46  80 SW7       30.12S
MOUNT POCONO   FAIR      53  44  71 W10       30.11F
HAZLETON       FAIR      59  43  55 W3        30.16S
LEHIGHTON      FAIR      43  41  93 CALM      30.13F
WILKES BARRE   FAIR      59  45  59 SW7       30.11S

$$
DEZALL-MDZ008-012-015-019-020-200500-
DELAWARE AND EASTERN MARYLAND

CITY           SKY/WX    TMP DP  RH WIND       PRES   REMARKS
WILMINGTON     FAIR      53  50  89 CALM      30.16R
DOVER          CLEAR     55  52  88 S6        30.14S
GEORGETOWN     FAIR      49  47  93 SW3       30.17R
EASTON         FAIR      55  53  93 CALM      30.19S
ABERDEEN       FAIR      49  49  99 CALM      30.16R
PATUXENT       FAIR      49  47  93 SW6       30.16S
OCEAN CITY     FAIR      57  55  93 SW8       30.17S FOG
WALLOPS ISLAND FAIR      59  58  96 SW8       30.18S
CAMBRIDGE      CLEAR     50  50 100 CALM      30.17R FOG
SALISBURY      FAIR      53  53 100 CALM      30.16F

$$
PAZ001-021-NYZ056-072-MDZ011-DCZ001-200500-
OTHER NEARBY LOCATIONS

CITY           SKY/WX    TMP DP  RH WIND       PRES   REMARKS
HARRISBURG     FAIR      53  50  89 CALM      30.14S
STATE COLLEGE  FAIR      56  45  66 SW9       30.15S
WILLIAMSPORT   FAIR      51  47  86 CALM      30.11S
BINGHAMTON     FAIR      55  45  68 NW3       30.10R
NEW YORK CITY  FAIR      62  46  55 VRB6      30.10F
BALTIMORE      FAIR      52  49  89 W3        30.16R
WASHINGTON DC  FAIR      59  54  83 S5        30.18R

$$




USA.gov is the U.S. government's official web portal to all federal, state and local government web resources and services.